EW0609 Weather Reports


time (UTC)temp
C
wind
direction
speed
KPH
gust
KPH
rain 1hr
cm
rain 24hr
cm
rain mn
cm
humidity
%
barometer
mb
20260510020838 26 44 0.0 6.4 0.00 0.00 0.00 19 1007.9
20260510020338 27 87 0.0 6.4 0.00 0.00 0.00 17 1007.8
20260510020230 27 73 1.6 6.4 0.00 0.00 0.00 17 1007.7
20260510015339 26 99 0.0 4.8 0.00 0.00 0.00 18 1007.7
20260510014838 27 106 1.6 4.8 0.00 0.00 0.00 19 1007.6
20260510014340 26 82 1.6 4.8 0.00 0.00 0.00 21 1007.6
20260510013839 26 63 1.6 4.8 0.00 0.00 0.00 20 1007.5
20260510013340 27 75 0.0 4.8 0.00 0.00 0.00 22 1007.4
20260510013226 27 24 1.6 4.8 0.00 0.00 0.00 18 1007.2
20260510012338 27 28 0.0 1.6 0.00 0.00 0.00 19 1007.4
20260510011839 27 25 0.0 3.2 0.00 0.00 0.00 19 1007.2
20260510011339 27 21 1.6 3.2 0.00 0.00 0.00 19 1007.1
20260510010839 27 30 1.6 3.2 0.00 0.00 0.00 19 1007.2
20260510010338 28 4 0.0 6.4 0.00 0.00 0.00 18 1007.1
20260510005838 29 4 0.0 6.4 0.00 0.00 0.00 16 1007.1
20260510005338 30 358 1.6 4.8 0.00 0.00 0.00 16 1007.0
20260510004839 30 3 3.2 4.8 0.00 0.00 0.00 15 1007.0
20260510004724 30 21 1.6 8.0 0.00 0.00 0.00 16 1007.0
20260510004228 30 1 3.2 9.7 0.00 0.00 0.00 15 1007.1
20260510003338 30 0 3.2 9.7 0.00 0.00 0.00 15 1007.2
20260510002841 30 16 8.0 9.7 0.00 0.00 0.00 16 1007.2
20260510002338 30 52 1.6 6.4 0.00 0.00 0.00 14 1007.2
20260510001842 31 16 0.0 4.8 0.00 0.00 0.00 14 1007.1
20260510001338 31 286 0.0 8.0 0.00 0.00 0.00 13 1007.2
20260510000838 31 350 3.2 8.0 0.00 0.00 0.00 13 1007.2
20260510000341 31 358 3.2 14.5 0.00 0.00 0.00 14 1007.2
20260509235838 31 302 8.0 14.5 0.00 0.00 0.00 13 1007.4
20260509235339 31 333 3.2 8.0 0.00 0.00 0.00 13 1007.5
20260509234838 31 354 6.4 9.7 0.00 0.00 0.00 15 1007.5
20260509234338 32 0 6.4 14.5 0.00 0.00 0.00 12 1007.5
20260509233838 32 18 6.4 19.3 0.00 0.00 0.00 12 1007.4
20260509233730 32 0 3.2 20.9 0.00 0.00 0.00 12 1007.5
20260509232840 32 338 9.7 20.9 0.00 0.00 0.00 13 1007.5
20260509232340 32 305 3.2 19.3 0.00 0.00 0.00 16 1007.6
20260509231838 32 323 8.0 19.3 0.00 0.00 0.00 14 1007.7
20260509231338 32 296 4.8 24.1 0.00 0.00 0.00 16 1007.7
20260509230839 32 268 9.7 24.1 0.00 0.00 0.00 14 1007.7
20260509230339 32 314 4.8 22.5 0.00 0.00 0.00 13 1007.6
20260509225839 32 238 6.4 22.5 0.00 0.00 0.00 14 1007.7
20260509225338 32 326 11.3 22.5 0.00 0.00 0.00 13 1007.7
20260509224839 32 262 9.7 25.7 0.00 0.00 0.00 15 1007.8
20260509224338 32 285 11.3 25.7 0.00 0.00 0.00 14 1007.7
20260509223838 33 317 8.0 24.1 0.00 0.00 0.00 15 1007.7
20260509223339 33 344 9.7 24.1 0.00 0.00 0.00 14 1007.7
20260509222838 32 340 9.7 20.9 0.00 0.00 0.00 15 1007.7
20260509222339 32 207 9.7 22.5 0.00 0.00 0.00 14 1007.6
20260509221839 32 247 12.9 24.1 0.00 0.00 0.00 13 1007.6
20260509221340 32 276 6.4 24.1 0.00 0.00 0.00 15 1007.6
20260509221228 33 226 12.9 20.9 0.00 0.00 0.00 14 1007.7
20260509220338 33 250 12.9 20.9 0.00 0.00 0.00 14 1007.8
20260509215839 33 240 6.4 20.9 0.00 0.00 0.00 16 1007.8
20260509215338 33 259 8.0 25.7 0.00 0.00 0.00 15 1007.7
20260509214838 32 282 12.9 25.7 0.00 0.00 0.00 17 1007.8
20260509214726 32 303 1.6 25.7 0.00 0.00 0.00 16 1007.9
20260509213838 33 248 12.9 25.7 0.00 0.00 0.00 15 1008.0
20260509213338 33 268 9.7 22.5 0.00 0.00 0.00 17 1008.0
20260509213228 33 276 9.7 20.9 0.00 0.00 0.00 14 1008.0
20260509212338 33 295 8.0 20.9 0.00 0.00 0.00 15 1008.3
20260509211840 32 285 11.3 20.9 0.00 0.00 0.00 16 1008.1
20260509211437 33 219 4.8 24.1 0.00 0.00 0.00 16 1008.4
20260509211014 33 240 12.9 24.1 0.00 0.00 0.00 16 1008.4
20260509210227 32 0 11.3 22.5 0.00 0.00 0.00 19 1008.5
20260509205340 32 327 6.4 25.7 0.00 0.00 0.00 21 1008.7
20260509204838 33 224 9.7 25.7 0.00 0.00 0.00 19 1008.6
20260509204339 33 317 8.0 27.4 0.00 0.00 0.00 18 1008.7
20260509203837 33 307 9.7 27.4 0.00 0.00 0.00 20 1008.9
20260509203338 32 261 6.4 20.9 0.00 0.00 0.00 20 1009.0
20260509202838 32 344 9.7 20.9 0.00 0.00 0.00 20 1009.0
20260509202339 32 219 11.3 19.3 0.00 0.00 0.00 23 1009.0
20260509201838 32 252 6.4 19.3 0.00 0.00 0.00 21 1009.0
20260509201337 32 252 6.4 14.5 0.00 0.00 0.00 22 1009.1
20260509200839 32 282 6.4 22.5 0.00 0.00 0.00 22 1009.3
20260509200730 32 312 9.7 22.5 0.00 0.00 0.00 22 1009.4
20260509195840 31 265 4.8 19.3 0.00 0.00 0.00 21 1009.4
20260509195338 32 227 9.7 17.7 0.00 0.00 0.00 22 1009.5
20260509194837 32 228 6.4 17.7 0.00 0.00 0.00 23 1009.5
20260509194727 31 276 6.4 20.9 0.00 0.00 0.00 24 1009.6
20260509193839 31 312 3.2 27.4 0.00 0.00 0.00 22 1009.6
20260509193338 32 344 9.7 27.4 0.00 0.00 0.00 23 1009.8
20260509192839 32 245 12.9 20.9 0.00 0.00 0.00 23 1009.8
20260509192339 31 262 4.8 11.3 0.00 0.00 0.00 25 1009.9
20260509192227 30 341 4.8 17.7 0.00 0.00 0.00 25 1009.9
20260509191338 31 259 4.8 20.9 0.00 0.00 0.00 25 1010.0
20260509190837 31 235 14.5 20.9 0.00 0.00 0.00 25 1010.1
20260509190338 31 233 6.4 16.1 0.00 0.00 0.00 26 1010.1
20260509190124 30 221 8.0 20.9 0.00 0.00 0.00 26 1010.4
20260509190011 30 295 4.8 20.9 0.00 0.00 0.00 27 1010.1
20260509184838 30 247 8.0 24.1 0.00 0.00 0.00 25 1010.5
20260509184338 30 154 9.7 24.1 0.00 0.00 0.00 24 1010.6
20260509184221 30 252 9.7 24.1 0.00 0.00 0.00 26 1010.7
20260509183337 30 227 9.7 24.1 0.00 0.00 0.00 25 1010.6
20260509182837 30 240 14.5 24.1 0.00 0.00 0.00 25 1010.8
20260509182337 30 212 11.3 22.5 0.00 0.00 0.00 27 1010.8
20260509181839 30 240 8.0 22.5 0.00 0.00 0.00 26 1010.9
20260509181339 30 230 8.0 27.4 0.00 0.00 0.00 26 1011.0
20260509180838 30 235 14.5 27.4 0.00 0.00 0.00 27 1011.1
20260509180338 30 159 6.4 22.5 0.00 0.00 0.00 27 1011.3
20260509175838 30 254 6.4 22.5 0.00 0.00 0.00 27 1011.3
20260509175338 30 171 8.0 16.1 0.00 0.00 0.00 30 1011.4
20260509174837 30 231 8.0 19.3 0.00 0.00 0.00 31 1011.4
20260509174339 30 100 8.0 19.3 0.00 0.00 0.00 30 1011.5
20260509174126 28 196 8.0 20.9 0.00 0.00 0.00 31 1011.5
20260509174009 29 220 9.7 19.3 0.00 0.00 0.00 30 1011.5
20260509172838 28 251 9.7 24.1 0.00 0.00 0.00 32 1011.6
20260509172340 28 250 16.1 24.1 0.00 0.00 0.00 31 1011.9
20260509171840 28 250 4.8 22.5 0.00 0.00 0.00 31 1011.9
20260509171338 28 161 6.4 25.7 0.00 0.00 0.00 34 1011.9
20260509171226 27 214 16.1 27.4 0.00 0.00 0.00 32 1012.0
20260509170339 28 221 12.9 27.4 0.00 0.00 0.00 32 1012.2
20260509165838 28 202 9.7 29.0 0.00 0.00 0.00 32 1012.2
20260509165338 27 210 11.3 29.0 0.00 0.00 0.00 34 1012.2
20260509164838 27 171 12.9 25.7 0.00 0.00 0.00 32 1012.4
20260509164337 27 171 8.0 25.7 0.00 0.00 0.00 33 1012.4
20260509163837 27 97 6.4 20.9 0.00 0.00 0.00 34 1012.4
20260509163338 27 159 9.7 20.9 0.00 0.00 0.00 35 1012.4
20260509162838 27 192 9.7 27.4 0.00 0.00 0.00 35 1012.5
20260509162339 26 162 14.5 27.4 0.00 0.00 0.00 36 1012.6
20260509161837 26 142 11.3 25.7 0.00 0.00 0.00 37 1012.6
20260509161338 26 185 9.7 25.7 0.00 0.00 0.00 37 1012.6
20260509160837 26 142 12.9 25.7 0.00 0.00 0.00 35 1012.6
20260509160618 26 135 11.3 30.6 0.00 0.00 0.00 36 1012.7
20260509160507 26 166 9.7 30.6 0.00 0.00 0.00 37 1012.7
20260509155338 26 202 8.0 20.9 0.00 0.00 0.00 38 1012.6
20260509154838 25 180 11.3 22.5 0.00 0.00 0.00 39 1012.7
20260509154337 25 180 12.9 22.5 0.00 0.00 0.00 40 1012.9
20260509153839 25 171 11.3 19.3 0.00 0.00 0.00 40 1013.0
20260509153338 25 142 9.7 19.3 0.00 0.00 0.00 43 1012.9
20260509152838 24 204 4.8 16.1 0.00 0.00 0.00 42 1012.9
20260509152338 24 116 9.7 17.7 0.00 0.00 0.00 45 1013.0
20260509151837 24 130 9.7 17.7 0.00 0.00 0.00 43 1013.0
20260509151337 23 148 8.0 17.7 0.00 0.00 0.00 44 1013.2
20260509150836 23 158 6.4 11.3 0.00 0.00 0.00 46 1013.3
20260509150336 23 152 3.2 8.0 0.00 0.00 0.00 47 1013.3
20260509145837 22 110 0.0 9.7 0.00 0.00 0.00 50 1013.4
20260509145508 21 120 6.4 11.3 0.00 0.00 0.00 52 1013.4
20260509145458 21 128 1.6 9.7 0.00 0.00 0.00 53 1013.4
20260509145422 22 134 4.8 9.7 0.00 0.00 0.00 51 1013.4
20260509144121 21 155 6.4 11.3 0.00 0.00 0.00 55 1013.4
20260509144009 21 166 4.8 11.3 0.00 0.00 0.00 53 1013.5
20260509143228 20 192 4.8 11.3 0.00 0.00 0.00 58 1013.5
20260509142337 20 212 0.0 8.0 0.00 0.00 0.00 60 1013.5
20260509141838 20 134 1.6 8.0 0.00 0.00 0.00 61 1013.5
20260509141719 20 207 4.8 8.0 0.00 0.00 0.00 61 1013.6
20260509141223 19 107 1.6 6.4 0.00 0.00 0.00 62 1013.6
20260509140728 19 144 3.2 4.8 0.00 0.00 0.00 61 1013.6
20260509135839 18 216 1.6 6.4 0.00 0.00 0.00 61 1013.6
20260509135337 18 99 3.2 6.4 0.00 0.00 0.00 61 1013.6
20260509135228 18 138 0.0 0.0 0.00 0.00 0.00 60 1013.5
20260509134338 17 141 0.0 0.0 0.00 0.00 0.00 60 1013.5
20260509133837 17 0 0.0 0.0 0.00 0.00 0.00 59 1013.6
20260509133338 17 141 0.0 0.0 0.00 0.00 0.00 57 1013.6
20260509132837 16 141 0.0 0.0 0.00 0.00 0.00 57 1013.6
20260509132337 16 141 0.0 3.2 0.00 0.00 0.00 58 1013.7
20260509131836 16 141 0.0 4.8 0.00 0.00 0.00 56 1013.7
20260509131339 16 103 1.6 4.8 0.00 0.00 0.00 55 1013.6
20260509130838 15 100 1.6 3.2 0.00 0.00 0.00 57 1013.5
20260509130722 15 124 0.0 3.2 0.00 0.00 0.00 57 1013.5
20260509125838 14 159 0.0 3.2 0.00 0.00 0.00 57 1013.5
20260509125337 14 159 0.0 4.8 0.00 0.00 0.00 58 1013.4
20260509124838 13 182 1.6 4.8 0.00 0.00 0.00 59 1013.3
20260509124338 13 116 0.0 4.8 0.00 0.00 0.00 61 1013.4
20260509124222 12 168 0.0 3.2 0.00 0.00 0.00 61 1013.3
20260509123729 12 162 0.0 4.8 0.00 0.00 0.00 62 1013.3
20260509122837 12 180 0.0 4.8 0.00 0.00 0.00 62 1013.3
20260509122337 12 142 0.0 4.8 0.00 0.00 0.00 63 1013.3
20260509121838 11 190 1.6 4.8 0.00 0.00 0.00 63 1013.3
20260509121736 12 166 0.0 4.8 0.00 0.00 0.00 62 1013.2
20260509120838 11 148 1.6 4.8 0.00 0.00 0.00 63 1013.2
20260509120337 11 155 0.0 4.8 0.00 0.00 0.00 63 1013.3
20260509115839 11 186 0.0 0.0 0.00 0.00 0.00 63 1013.3
20260509115338 11 186 0.0 3.2 0.00 0.00 0.00 63 1013.2
20260509114840 11 183 0.0 3.2 0.00 0.00 0.00 62 1013.2
20260509114338 11 171 0.0 1.6 0.00 0.00 0.00 62 1013.0
20260509113838 11 175 0.0 3.2 0.00 0.00 0.00 61 1013.2
20260509113337 11 166 1.6 4.8 0.00 0.00 0.00 61 1013.2
20260509113225 12 161 0.0 4.8 0.00 0.00 0.00 60 1013.2
20260509112338 12 166 0.0 3.2 0.00 0.00 0.00 60 1013.2
20260509111837 12 173 0.0 3.2 0.00 0.00 0.00 59 1013.0
20260509111338 12 161 0.0 8.0 0.00 0.00 0.00 58 1013.2
20260509110838 12 133 3.2 8.0 0.00 0.00 0.00 58 1013.2
20260509110338 12 106 3.2 8.0 0.00 0.00 0.00 58 1013.4
20260509105838 12 103 3.2 9.7 0.00 0.00 0.00 58 1013.4
20260509105337 12 118 4.8 9.7 0.00 0.00 0.00 57 1013.5
20260509104836 12 149 3.2 6.4 0.00 0.00 0.00 57 1013.5
20260509104338 13 145 3.2 9.7 0.00 0.00 0.00 56 1013.4
20260509103838 13 145 3.2 11.3 0.00 0.00 0.00 56 1013.4
20260509103337 13 110 4.8 11.3 0.00 0.00 0.00 56 1013.4
20260509102837 13 117 6.4 14.5 0.00 0.00 0.00 56 1013.4
20260509102340 13 131 3.2 14.5 0.00 0.00 0.00 55 1013.5
20260509101837 13 124 6.4 14.5 0.00 0.00 0.00 55 1013.5
20260509101337 13 155 6.4 14.5 0.00 0.00 0.00 54 1013.5
20260509101227 13 99 3.2 9.7 0.00 0.00 0.00 54 1013.4
20260509100338 13 147 3.2 9.7 0.00 0.00 0.00 54 1013.6
20260509095837 13 173 4.8 9.7 0.00 0.00 0.00 54 1013.5
20260509095338 13 118 3.2 11.3 0.00 0.00 0.00 54 1013.6
20260509094841 13 134 4.8 11.3 0.00 0.00 0.00 54 1013.6
20260509094338 13 120 4.8 11.3 0.00 0.00 0.00 54 1013.5
20260509094227 13 124 4.8 11.3 0.00 0.00 0.00 53 1013.6
20260509093339 13 144 6.4 14.5 0.00 0.00 0.00 52 1013.4
20260509092839 13 123 4.8 14.5 0.00 0.00 0.00 52 1013.4
20260509092339 13 104 8.0 14.5 0.00 0.00 0.00 52 1013.4
20260509091838 13 124 6.4 16.1 0.00 0.00 0.00 51 1013.3
20260509091339 13 104 9.7 16.1 0.00 0.00 0.00 51 1013.2
20260509090837 13 111 9.7 16.1 0.00 0.00 0.00 51 1013.2
20260509090337 13 134 8.0 11.3 0.00 0.00 0.00 51 1013.2
20260509085838 13 134 6.4 11.3 0.00 0.00 0.00 51 1013.3
20260509085337 13 117 6.4 11.3 0.00 0.00 0.00 51 1013.3
20260509085228 13 133 6.4 16.1 0.00 0.00 0.00 50 1013.4
20260509084337 14 117 8.0 16.1 0.00 0.00 0.00 50 1013.5
20260509083837 14 96 6.4 17.7 0.00 0.00 0.00 50 1013.4
20260509083337 14 103 9.7 17.7 0.00 0.00 0.00 50 1013.4
20260509082837 14 134 9.7 16.1 0.00 0.00 0.00 50 1013.3
20260509082721 14 114 9.7 16.1 0.00 0.00 0.00 50 1013.3
20260509082222 14 104 9.7 16.1 0.00 0.00 0.00 50 1013.3
20260509081337 14 103 8.0 19.3 0.00 0.00 0.00 50 1013.3
20260509081219 14 120 9.7 19.3 0.00 0.00 0.00 50 1013.3
20260509080337 14 114 8.0 19.3 0.00 0.00 0.00 49 1013.3
20260509075837 14 111 6.4 19.3 0.00 0.00 0.00 49 1013.3
20260509075337 15 120 6.4 19.3 0.00 0.00 0.00 49 1013.4
20260509075229 15 117 12.9 19.3 0.00 0.00 0.00 48 1013.3
20260509074337 15 133 9.7 20.9 0.00 0.00 0.00 47 1013.5
20260509073837 15 111 9.7 20.9 0.00 0.00 0.00 46 1013.4
20260509073337 16 121 12.9 24.1 0.00 0.00 0.00 44 1013.4
20260509072838 17 124 9.7 24.1 0.00 0.00 0.00 43 1013.3
20260509072337 17 100 9.7 22.5 0.00 0.00 0.00 43 1013.2
20260509071838 17 79 9.7 22.5 0.00 0.00 0.00 43 1013.2
20260509071724 17 125 9.7 19.3 0.00 0.00 0.00 43 1013.0
20260509070837 17 56 8.0 20.9 0.00 0.00 0.00 43 1013.2
20260509070337 17 85 8.0 20.9 0.00 0.00 0.00 43 1012.9
20260509070222 16 104 6.4 16.1 0.00 0.00 0.00 43 1013.0
20260509065336 16 79 6.4 14.5 0.00 0.00 0.00 43 1013.0
20260509064839 16 76 6.4 14.5 0.00 0.00 0.00 43 1013.2
20260509064716 17 90 4.8 14.5 0.00 0.00 0.00 42 1013.0
20260509063839 17 65 6.4 14.5 0.00 0.00 0.00 42 1012.8
20260509063337 17 87 3.2 14.5 0.00 0.00 0.00 41 1012.8
20260509062837 17 102 4.8 19.3 0.00 0.00 0.00 41 1012.9
20260509062337 18 87 3.2 22.5 0.00 0.00 0.00 41 1012.8
20260509062225 18 114 8.0 22.5 0.00 0.00 0.00 41 1013.2
20260509061336 18 92 9.7 20.9 0.00 0.00 0.00 41 1013.0
20260509060836 17 86 4.8 11.3 0.00 0.00 0.00 41 1013.2
20260509060338 18 54 4.8 14.5 0.00 0.00 0.00 41 1013.0
20260509055838 18 94 6.4 14.5 0.00 0.00 0.00 40 1013.3
20260509055337 18 90 6.4 16.1 0.00 0.00 0.00 40 1013.2
20260509054837 18 106 8.0 16.1 0.00 0.00 0.00 39 1013.0
20260509054337 18 110 8.0 14.5 0.00 0.00 0.00 39 1013.2
20260509053837 18 109 6.4 14.5 0.00 0.00 0.00 39 1013.2
20260509053337 18 103 6.4 14.5 0.00 0.00 0.00 39 1013.0
20260509052837 18 99 9.7 14.5 0.00 0.00 0.00 39 1013.2
20260509052337 18 109 4.8 19.3 0.00 0.00 0.00 39 1013.2
20260509051841 18 93 4.8 19.3 0.00 0.00 0.00 38 1012.9
20260509051337 18 103 8.0 11.3 0.00 0.00 0.00 38 1013.4
20260509050838 18 128 6.4 11.3 0.00 0.00 0.00 39 1013.2
20260509050337 18 113 3.2 14.5 0.00 0.00 0.00 38 1013.0
20260509045838 19 109 8.0 14.5 0.00 0.00 0.00 38 1013.3
20260509045731 19 117 8.0 14.5 0.00 0.00 0.00 37 1013.2
20260509044837 19 106 6.4 11.3 0.00 0.00 0.00 37 1013.2
20260509044336 19 97 6.4 8.0 0.00 0.00 0.00 37 1013.3
20260509043836 20 134 3.2 8.0 0.00 0.00 0.00 37 1013.2
20260509043336 19 103 0.0 9.7 0.00 0.00 0.00 37 1013.3
20260509042838 19 106 4.8 9.7 0.00 0.00 0.00 37 1013.3
20260509042729 19 100 3.2 9.7 0.00 0.00 0.00 37 1013.2
20260509041837 20 107 4.8 9.7 0.00 0.00 0.00 37 1013.2
20260509041336 20 109 4.8 11.3 0.00 0.00 0.00 37 1013.2
20260509040836 20 110 6.4 11.3 0.00 0.00 0.00 36 1013.2
20260509040716 20 103 6.4 9.7 0.00 0.00 0.00 36 1013.2
20260509035836 20 107 4.8 8.0 0.00 0.00 0.00 37 1013.2
20260509035337 20 89 1.6 6.4 0.00 0.00 0.00 36 1013.0
20260509034837 20 93 3.2 4.8 0.00 0.00 0.00 36 1013.0
20260509034336 20 107 0.0 11.3 0.00 0.00 0.00 35 1012.9
20260509033836 20 87 3.2 11.3 0.00 0.00 0.00 35 1012.9
20260509033724 21 103 3.2 9.7 0.00 0.00 0.00 35 1012.9
20260509032837 21 97 4.8 9.7 0.00 0.00 0.00 34 1012.9
20260509032336 21 113 3.2 6.4 0.00 0.00 0.00 34 1012.8
20260509031836 21 110 1.6 6.4 0.00 0.00 0.00 34 1012.7
20260509031336 21 96 1.6 6.4 0.00 0.00 0.00 34 1012.6
20260509030836 21 68 0.0 8.0 0.00 0.00 0.00 34 1012.5
20260509030341 21 114 3.2 8.0 0.00 0.00 0.00 34 1012.6
20260509025836 21 103 1.6 4.8 0.00 0.00 0.00 33 1012.5
20260509025336 21 106 0.0 4.8 0.00 0.00 0.00 32 1012.4
20260509024836 21 100 1.6 4.8 0.00 0.00 0.00 32 1012.3
20260509024336 21 51 0.0 4.8 0.00 0.00 0.00 32 1012.4
20260509023837 21 111 0.0 4.8 0.00 0.00 0.00 31 1012.2
20260509023337 22 116 0.0 4.8 0.00 0.00 0.00 31 1012.0
20260509022837 22 97 1.6 4.8 0.00 0.00 0.00 31 1012.0
20260509022335 22 99 1.6 3.2 0.00 0.00 0.00 31 1011.9
20260509021835 22 23 0.0 6.4 0.00 0.00 0.00 31 1012.0
20260509021728 22 69 1.6 6.4 0.00 0.00 0.00 30 1011.8